TRA23A EHRD-LOWI

Flight info

Callsign TRA23A
Flight time 1h 9m
Altitude 37000
Route EHRD/06 WOODY N872 NIK M624 BUB DCT LIRSU DCT KRH DCT BATUB/N0433F310 M738 MADEB MADEB1B
Aircraft A320/M-SDE3FGHIRWY/LB1

Departure

Time 2026-05-05 17:49
Airport Rotterdam The Hague Airport (EHRD)

Arrival

Time 2026-05-05 18:58
Airport Innsbruck Airport (LOWI)
Time Latitude Longitude Altitude Speed Heading
2026-05-05 17:26 51.95072 4.43367 1 ft 0 kts 327°
2026-05-05 17:45 51.95087 4.43351 1 ft 5 kts 328°
2026-05-05 17:46 51.95132 4.43304 1 ft 11 kts 326°
2026-05-05 17:46 51.95166 4.43208 1 ft 11 kts 246°
2026-05-05 17:46 51.95121 4.43062 1 ft 13 kts 245°
2026-05-05 17:46 51.95111 4.43022 1 ft 0 kts 253°
2026-05-05 17:47 51.95110 4.43014 1 ft 2 kts 256°
2026-05-05 17:47 51.95109 4.43008 1 ft 0 kts 258°
2026-05-05 17:47 51.95112 4.42968 1 ft 10 kts 288°
2026-05-05 17:48 51.95184 4.42873 2 ft 15 kts 327°
2026-05-05 17:48 51.95228 4.42874 2 ft 8 kts 47°
2026-05-05 17:48 51.95378 4.43246 1 ft 83 kts 57°
2026-05-05 17:48 51.95823 4.44372 69 ft 144 kts 54°
2026-05-05 17:49 51.96342 4.45712 848 ft 142 kts 55°
2026-05-05 17:49 51.96861 4.47066 1445 ft 148 kts 54°
2026-05-05 17:49 51.97456 4.48584 1732 ft 171 kts 54°
2026-05-05 17:49 51.98142 4.50336 2039 ft 197 kts 55°
2026-05-05 17:50 51.98862 4.52392 2454 ft 223 kts 60°
2026-05-05 17:50 51.99579 4.54765 2886 ft 242 kts 62°
2026-05-05 17:50 52.00297 4.57247 2971 ft 243 kts 63°
2026-05-05 17:50 52.00676 4.59908 2978 ft 248 kts 92°
2026-05-05 17:51 51.99994 4.62501 2984 ft 259 kts 129°
2026-05-05 17:51 51.98550 4.64291 2983 ft 266 kts 148°
2026-05-05 17:51 51.96869 4.65588 3017 ft 271 kts 154°
2026-05-05 17:51 51.95055 4.66454 3894 ft 276 kts 174°
2026-05-05 17:52 51.93134 4.66182 4618 ft 279 kts 195°
2026-05-05 17:52 51.91384 4.64857 5139 ft 280 kts 217°
2026-05-05 17:52 51.90046 4.62610 5677 ft 278 kts 236°
2026-05-05 17:52 51.88941 4.60042 6223 ft 277 kts 237°
2026-05-05 17:53 51.87736 4.57616 6720 ft 279 kts 225°
2026-05-05 17:53 51.86190 4.55711 6856 ft 280 kts 209°
2026-05-05 17:53 51.84376 4.54555 7103 ft 284 kts 193°
2026-05-05 17:53 51.82451 4.53817 7988 ft 285 kts 194°
2026-05-05 17:54 51.80520 4.53036 8880 ft 287 kts 194°
2026-05-05 17:54 51.78571 4.52227 9711 ft 291 kts 194°
2026-05-05 17:54 51.76571 4.51391 10226 ft 306 kts 194°
2026-05-05 17:54 51.74436 4.50498 10447 ft 328 kts 194°
2026-05-05 17:55 51.72179 4.49560 10930 ft 339 kts 194°
2026-05-05 17:55 51.69876 4.48609 11574 ft 344 kts 193°
2026-05-05 17:55 51.67540 4.47650 12242 ft 349 kts 193°
2026-05-05 17:55 51.65202 4.46692 12895 ft 353 kts 193°
2026-05-05 17:56 51.62807 4.45712 13577 ft 357 kts 193°
2026-05-05 17:56 51.60388 4.44723 14217 ft 360 kts 192°
2026-05-05 17:56 51.57945 4.43722 14816 ft 364 kts 193°
2026-05-05 17:56 51.55481 4.42716 15445 ft 367 kts 192°
2026-05-05 17:57 51.52999 4.41704 16061 ft 369 kts 193°
2026-05-05 17:57 51.50497 4.40681 16685 ft 372 kts 193°
2026-05-05 17:57 51.47978 4.39655 17329 ft 375 kts 193°
2026-05-05 17:57 51.45445 4.38626 17931 ft 377 kts 192°
2026-05-05 17:58 51.42880 4.37587 18522 ft 380 kts 193°
2026-05-05 17:58 51.40341 4.36404 19129 ft 382 kts 200°
2026-05-05 17:58 51.37918 4.34660 19763 ft 384 kts 205°
2026-05-05 17:58 51.35507 4.32823 20418 ft 384 kts 205°
2026-05-05 17:59 51.33088 4.30978 21111 ft 383 kts 205°
2026-05-05 17:59 51.30676 4.29142 21707 ft 385 kts 205°
2026-05-05 17:59 51.28247 4.27296 22241 ft 388 kts 205°
2026-05-05 17:59 51.25837 4.25467 22797 ft 390 kts 205°
2026-05-05 18:00 51.23348 4.23582 23289 ft 393 kts 205°
2026-05-05 18:00 51.20783 4.22170 23722 ft 397 kts 192°
2026-05-05 18:00 51.18024 4.21873 24132 ft 401 kts 175°
2026-05-05 18:00 51.15307 4.22883 24564 ft 404 kts 158°
2026-05-05 18:01 51.12887 4.25153 24981 ft 408 kts 141°
2026-05-05 18:01 51.10990 4.28531 25395 ft 412 kts 125°
2026-05-05 18:01 51.09411 4.32352 25816 ft 414 kts 124°
2026-05-05 18:01 51.07838 4.36215 26235 ft 416 kts 124°
2026-05-05 18:02 51.06271 4.40083 26650 ft 417 kts 124°
2026-05-05 18:02 51.04697 4.43966 27050 ft 418 kts 124°
2026-05-05 18:02 51.03115 4.47849 27452 ft 420 kts 124°
2026-05-05 18:02 51.01518 4.51740 27858 ft 421 kts 124°
2026-05-05 18:03 50.99909 4.55636 28260 ft 422 kts 125°
2026-05-05 18:03 50.98290 4.59539 28655 ft 424 kts 125°
2026-05-05 18:03 50.96666 4.63451 29039 ft 425 kts 125°
2026-05-05 18:03 50.95036 4.67377 29416 ft 427 kts 125°
2026-05-05 18:04 50.93400 4.71322 29764 ft 428 kts 125°
2026-05-05 18:04 50.91759 4.75276 30101 ft 430 kts 125°
2026-05-05 18:04 50.90116 4.79235 30413 ft 431 kts 125°
2026-05-05 18:04 50.88467 4.83196 30843 ft 430 kts 125°
2026-05-05 18:05 50.86782 4.87094 31295 ft 427 kts 127°
2026-05-05 18:05 50.85049 4.90903 31747 ft 425 kts 128°
2026-05-05 18:05 50.83296 4.94664 32200 ft 423 kts 128°
2026-05-05 18:05 50.81553 4.98392 32653 ft 422 kts 128°
2026-05-05 18:06 50.79821 5.02122 33107 ft 420 kts 128°
2026-05-05 18:06 50.78682 5.04597 33402 ft 419 kts 128°
2026-05-05 18:06 50.76409 5.09591 33827 ft 418 kts 128°
2026-05-05 18:07 50.73046 5.17026 33861 ft 414 kts 128°
2026-05-05 18:07 50.69713 5.24363 33860 ft 413 kts 128°
2026-05-05 18:08 50.66344 5.31716 33878 ft 413 kts 128°
2026-05-05 18:08 50.62973 5.39062 33863 ft 413 kts 127°
2026-05-05 18:09 50.59957 5.46784 33845 ft 415 kts 123°
2026-05-05 18:09 50.57019 5.54628 33924 ft 416 kts 123°
2026-05-05 18:09 50.55548 5.58549 34268 ft 416 kts 123°
2026-05-05 18:10 50.54083 5.62459 34659 ft 414 kts 123°
2026-05-05 18:10 50.52623 5.66354 34974 ft 414 kts 123°
2026-05-05 18:10 50.50955 5.70022 35235 ft 412 kts 134°
2026-05-05 18:10 50.49004 5.73327 35446 ft 413 kts 135°
2026-05-05 18:11 50.47034 5.76630 35685 ft 415 kts 135°
2026-05-05 18:11 50.45054 5.79928 35920 ft 416 kts 135°
2026-05-05 18:11 50.43062 5.83235 36151 ft 418 kts 135°
2026-05-05 18:11 50.41065 5.86553 36389 ft 419 kts 135°
2026-05-05 18:12 50.39060 5.89879 36616 ft 420 kts 135°
2026-05-05 18:12 50.37051 5.93215 36786 ft 422 kts 135°
2026-05-05 18:12 50.35028 5.96574 36837 ft 426 kts 135°
2026-05-05 18:13 50.30953 6.03338 36835 ft 428 kts 135°
2026-05-05 18:13 50.26878 6.10074 36817 ft 429 kts 135°
2026-05-05 18:14 50.22768 6.16842 36821 ft 429 kts 135°
2026-05-05 18:14 50.18652 6.23587 36820 ft 429 kts 135°
2026-05-05 18:15 50.14532 6.30341 36807 ft 430 kts 135°
2026-05-05 18:15 50.10410 6.37093 36810 ft 430 kts 135°
2026-05-05 18:16 50.06278 6.43840 36776 ft 430 kts 135°
2026-05-05 18:16 50.02131 6.50577 36794 ft 430 kts 135°
2026-05-05 18:17 49.97990 6.57291 36808 ft 431 kts 135°
2026-05-05 18:17 49.93835 6.64010 36811 ft 432 kts 135°
2026-05-05 18:18 49.89665 6.70738 36791 ft 433 kts 136°
2026-05-05 18:18 49.86194 6.76330 36799 ft 433 kts 136°
2026-05-05 18:19 49.82013 6.83044 36794 ft 433 kts 136°
2026-05-05 18:19 49.77817 6.89749 36822 ft 434 kts 136°
2026-05-05 18:20 49.73610 6.96449 36827 ft 434 kts 136°
2026-05-05 18:20 49.69408 7.03143 36827 ft 434 kts 136°
2026-05-05 18:21 49.65198 7.09848 36842 ft 435 kts 136°
2026-05-05 18:21 49.60983 7.16534 36840 ft 434 kts 136°
2026-05-05 18:22 49.56762 7.23191 36831 ft 434 kts 136°
2026-05-05 18:22 49.52532 7.29846 36839 ft 434 kts 136°
2026-05-05 18:23 49.48307 7.36487 36838 ft 434 kts 137°
2026-05-05 18:23 49.44079 7.43116 36839 ft 434 kts 137°
2026-05-05 18:24 49.39843 7.49746 36845 ft 435 kts 137°
2026-05-05 18:24 49.35594 7.56366 36832 ft 435 kts 137°
2026-05-05 18:25 49.31350 7.62961 36824 ft 435 kts 137°
2026-05-05 18:25 49.27093 7.69549 36833 ft 434 kts 137°
2026-05-05 18:26 49.22840 7.76122 36836 ft 435 kts 137°
2026-05-05 18:26 49.18609 7.82658 36842 ft 435 kts 137°
2026-05-05 18:27 49.14348 7.89224 36843 ft 435 kts 137°
2026-05-05 18:27 49.10085 7.95761 36844 ft 435 kts 137°
2026-05-05 18:28 49.03687 8.05564 36841 ft 435 kts 137°
2026-05-05 18:28 48.99407 8.12088 36847 ft 435 kts 138°
2026-05-05 18:29 48.95125 8.18604 36851 ft 435 kts 138°
2026-05-05 18:29 48.90837 8.25118 36853 ft 436 kts 138°
2026-05-05 18:30 48.86539 8.31621 36855 ft 436 kts 138°
2026-05-05 18:30 48.82240 8.38118 36858 ft 436 kts 138°
2026-05-05 18:31 48.77935 8.44600 36858 ft 437 kts 138°
2026-05-05 18:31 48.73612 8.51075 36857 ft 437 kts 138°
2026-05-05 18:32 48.69287 8.57552 36857 ft 437 kts 138°
2026-05-05 18:32 48.64953 8.64029 36859 ft 437 kts 139°
2026-05-05 18:33 48.60619 8.70487 36839 ft 437 kts 139°
2026-05-05 18:33 48.56283 8.76931 36852 ft 437 kts 139°
2026-05-05 18:34 48.51944 8.83359 36858 ft 437 kts 139°
2026-05-05 18:34 48.47602 8.89779 36867 ft 437 kts 139°
2026-05-05 18:35 48.43290 8.96155 36868 ft 437 kts 139°
2026-05-05 18:35 48.38948 9.02551 36865 ft 436 kts 139°
2026-05-05 18:36 48.34599 9.08931 36853 ft 437 kts 139°
2026-05-05 18:36 48.30245 9.15294 36861 ft 437 kts 139°
2026-05-05 18:37 48.25893 9.21651 36496 ft 435 kts 139°
2026-05-05 18:37 48.23719 9.24823 35857 ft 436 kts 139°
2026-05-05 18:37 48.21547 9.27985 35223 ft 436 kts 139°
2026-05-05 18:38 48.19368 9.31150 34586 ft 437 kts 139°
2026-05-05 18:38 48.17184 9.34318 34133 ft 435 kts 139°
2026-05-05 18:38 48.15007 9.37478 33595 ft 436 kts 139°
2026-05-05 18:38 48.12859 9.40591 32979 ft 434 kts 139°
2026-05-05 18:39 48.10666 9.43765 32342 ft 432 kts 140°
2026-05-05 18:39 48.08509 9.46884 31735 ft 430 kts 140°
2026-05-05 18:39 48.06368 9.49976 31154 ft 427 kts 140°
2026-05-05 18:39 48.04248 9.53037 30882 ft 419 kts 139°
2026-05-05 18:40 47.99853 9.58647 30855 ft 414 kts 148°
2026-05-05 18:40 47.95211 9.63653 30663 ft 412 kts 148°
2026-05-05 18:41 47.92879 9.66177 30290 ft 408 kts 148°
2026-05-05 18:41 47.90613 9.68626 29997 ft 405 kts 148°
2026-05-05 18:41 47.88337 9.71080 29465 ft 402 kts 148°
2026-05-05 18:41 47.86077 9.73512 29003 ft 397 kts 147°
2026-05-05 18:42 47.83850 9.75905 28514 ft 394 kts 148°
2026-05-05 18:42 47.81635 9.78283 28010 ft 392 kts 148°
2026-05-05 18:42 47.79423 9.80657 27454 ft 392 kts 148°
2026-05-05 18:42 47.77208 9.83030 26897 ft 392 kts 148°
2026-05-05 18:43 47.74994 9.85400 26362 ft 391 kts 148°
2026-05-05 18:43 47.72789 9.87760 25829 ft 391 kts 148°
2026-05-05 18:43 47.70585 9.90119 25315 ft 390 kts 148°
2026-05-05 18:43 47.68379 9.92474 24798 ft 390 kts 148°
2026-05-05 18:44 47.66183 9.94815 24294 ft 389 kts 148°
2026-05-05 18:44 47.63990 9.97149 23790 ft 384 kts 148°
2026-05-05 18:44 47.61839 9.99441 23275 ft 377 kts 148°
2026-05-05 18:44 47.59751 10.01663 22698 ft 371 kts 148°
2026-05-05 18:45 47.57668 10.03876 22132 ft 366 kts 148°
2026-05-05 18:45 47.55604 10.06067 21566 ft 364 kts 148°
2026-05-05 18:45 47.53550 10.08242 21041 ft 363 kts 149°
2026-05-05 18:45 47.51509 10.10401 20853 ft 360 kts 149°
2026-05-05 18:46 47.49457 10.12564 20868 ft 362 kts 149°
2026-05-05 18:46 47.47405 10.14727 20868 ft 362 kts 149°
2026-05-05 18:46 47.45352 10.16896 20870 ft 363 kts 149°
2026-05-05 18:46 47.43292 10.19047 20339 ft 365 kts 150°
2026-05-05 18:47 47.41179 10.21085 20033 ft 357 kts 152°
2026-05-05 18:47 47.39107 10.22978 19876 ft 342 kts 153°
2026-05-05 18:47 47.37094 10.24773 19288 ft 334 kts 153°
2026-05-05 18:47 47.35131 10.26561 18597 ft 332 kts 148°
2026-05-05 18:48 47.33450 10.28892 18099 ft 331 kts 133°
2026-05-05 18:48 47.32265 10.31756 17730 ft 329 kts 117°
2026-05-05 18:48 47.31595 10.35012 17281 ft 336 kts 104°
2026-05-05 18:48 47.31136 10.38398 16832 ft 338 kts 104°
2026-05-05 18:49 47.30681 10.41752 16377 ft 340 kts 104°
2026-05-05 18:49 47.30216 10.45179 15932 ft 341 kts 104°
2026-05-05 18:49 47.29745 10.48597 15509 ft 341 kts 104°
2026-05-05 18:49 47.29274 10.51998 15273 ft 334 kts 104°
2026-05-05 18:50 47.28813 10.55331 14650 ft 331 kts 103°
2026-05-05 18:50 47.28637 10.58674 14150 ft 325 kts 89°
2026-05-05 18:50 47.28771 10.61934 13738 ft 315 kts 88°
2026-05-05 18:50 47.28903 10.65168 13306 ft 317 kts 88°
2026-05-05 18:51 47.29032 10.68413 12869 ft 318 kts 88°
2026-05-05 18:51 47.29160 10.71708 12290 ft 325 kts 88°
2026-05-05 18:51 47.29290 10.74987 11984 ft 317 kts 88°
2026-05-05 18:51 47.29418 10.78211 11371 ft 314 kts 88°
2026-05-05 18:52 47.29545 10.81399 10781 ft 309 kts 89°
2026-05-05 18:52 47.29667 10.84543 10128 ft 308 kts 89°
2026-05-05 18:52 47.29786 10.87623 9888 ft 292 kts 89°
2026-05-05 18:52 47.29900 10.90514 9751 ft 271 kts 89°
2026-05-05 18:53 47.30005 10.93160 9414 ft 250 kts 90°
2026-05-05 18:53 47.30104 10.95636 8886 ft 235 kts 89°
2026-05-05 18:53 47.30198 10.98050 7965 ft 240 kts 88°
2026-05-05 18:53 47.30308 11.00570 7272 ft 257 kts 87°
2026-05-05 18:54 47.30420 11.03259 6891 ft 260 kts 89°
2026-05-05 18:54 47.30394 11.05893 6482 ft 263 kts 97°
2026-05-05 18:54 47.30025 11.08471 6365 ft 253 kts 109°
2026-05-05 18:54 47.29335 11.10841 6045 ft 250 kts 115°
2026-05-05 18:55 47.28586 11.13072 5714 ft 237 kts 116°
2026-05-05 18:55 47.27874 11.15205 5337 ft 226 kts 115°
2026-05-05 18:55 47.27202 11.17236 4934 ft 215 kts 116°
2026-05-05 18:55 47.26624 11.19227 4565 ft 206 kts 113°
2026-05-05 18:56 47.26103 11.21105 4315 ft 191 kts 111°
2026-05-05 18:56 47.25660 11.22928 3846 ft 188 kts 108°
2026-05-05 18:56 47.25341 11.24742 3387 ft 176 kts 99°
2026-05-05 18:56 47.25278 11.26483 2953 ft 164 kts 92°
2026-05-05 18:57 47.25354 11.28108 2631 ft 153 kts 84°
2026-05-05 18:57 47.25523 11.29598 2438 ft 145 kts 83°
2026-05-05 18:57 47.25673 11.31064 2210 ft 145 kts 85°
2026-05-05 18:57 47.25823 11.32512 2027 ft 141 kts 86°
2026-05-05 18:58 47.25970 11.33866 1907 ft 120 kts 86°
2026-05-05 18:58 47.26062 11.34777 1907 ft 52 kts 82°
2026-05-05 18:58 47.26097 11.35111 1901 ft 31 kts 82°
2026-05-05 18:58 47.26077 11.35259 1903 ft 12 kts 165°
2026-05-05 18:59 47.25989 11.35275 1907 ft 14 kts 172°
2026-05-05 18:59 47.25911 11.35281 1907 ft 8 kts 217°
2026-05-05 18:59 47.25898 11.35231 1907 ft 2 kts 256°
2026-05-05 18:59 47.25893 11.35198 1897 ft 4 kts 258°
2026-05-05 19:00 47.25887 11.35149 1899 ft 6 kts 259°
2026-05-05 19:00 47.25871 11.35102 1900 ft 5 kts 192°
2026-05-05 19:00 47.25830 11.35108 1899 ft 6 kts 172°
2026-05-05 19:00 47.25828 11.35109 1900 ft 0 kts 172°